When you browse on this site, cookies collect data to enhance your experience and personalize the content and advertising you see.
Visit our Privacy Policy to learn more. By continuing to use the site, you agree to this use of cookies and data.
  • In Österreich
  • Länderverzeichnis
  • Für 7 Tage
  • Wassertemperatur
  • Wetterkarte
  • News
  • Widgets
  • user-avatar
    Anmelden

    Stündliche Wetter Rostock

    Heute, 26 Mai, Dienstag

    Zeit Temperatur Niederschläge Wind Luftdruck Luftfeuchtigkeit
    00:00 +10°C° 0 mm 1 m/S 773 mmHg 91%
    01:00 +10°C° 0 mm 1 m/S 773 mmHg 93%
    02:00 +10°C° 0 mm 1 m/S 774 mmHg 93%
    03:00 +10°C° 0 mm 1 m/S 774 mmHg 94%
    04:00 +9°C° 0 mm 2 m/S 774 mmHg 94%
    05:00 +10°C° 0 mm 2 m/S 774 mmHg 91%
    06:00 +13°C° 0 mm 2 m/S 774 mmHg 88%
    07:00 +14°C° 0 mm 2 m/S 775 mmHg 88%
    08:00 +15°C° 0 mm 2 m/S 775 mmHg 83%
    09:00 +16°C° 0 mm 2 m/S 775 mmHg 78%
    10:00 +17°C° 0 mm 2 m/S 775 mmHg 73%
    11:00 +17°C° 0.2 mm 2 m/S 775 mmHg 73%
    12:00 +18°C° 0.2 mm 2 m/S 775 mmHg 73%
    13:00 +18°C° 0.2 mm 3 m/S 775 mmHg 73%
    14:00 +18°C° 0.1 mm 2 m/S 775 mmHg 72%
    15:00 +18°C° 0.1 mm 2 m/S 775 mmHg 71%
    16:00 +18°C° 0.1 mm 2 m/S 774 mmHg 69%
    17:00 +17°C° 0 mm 2 m/S 774 mmHg 74%
    18:00 +17°C° 0 mm 2 m/S 774 mmHg 79%
    19:00 +16°C° 0 mm 1 m/S 774 mmHg 83%
    20:00 +14°C° 0 mm 1 m/S 774 mmHg 85%
    21:00 +13°C° 0 mm 1 m/S 774 mmHg 87%
    22:00 +11°C° 0 mm 1 m/S 775 mmHg 88%
    23:00 +11°C° 0 mm 1 m/S 774 mmHg 89%

    Morgen, 27 Mai, Mittwoch

    Zeit Temperatur Niederschläge Wind Luftdruck Luftfeuchtigkeit
    00:00 +11°C° 0 mm 1 m/S 774 mmHg 89%
    01:00 +10°C° 0 mm 1 m/S 774 mmHg 89%
    02:00 +9°C° 0 mm 2 m/S 774 mmHg 90%
    03:00 +9°C° 0 mm 2 m/S 774 mmHg 91%
    04:00 +9°C° 0 mm 2 m/S 773 mmHg 92%
    05:00 +10°C° 0 mm 2 m/S 773 mmHg 89%
    06:00 +13°C° 0 mm 2 m/S 773 mmHg 86%
    07:00 +13°C° 0 mm 3 m/S 773 mmHg 84%
    08:00 +14°C° 0 mm 3 m/S 773 mmHg 80%
    09:00 +15°C° 0 mm 4 m/S 773 mmHg 77%
    10:00 +17°C° 0 mm 4 m/S 773 mmHg 74%
    11:00 +17°C° 0 mm 4 m/S 773 mmHg 73%
    12:00 +16°C° 0 mm 5 m/S 773 mmHg 73%
    13:00 +16°C° 0 mm 5 m/S 772 mmHg 72%
    14:00 +16°C° 0 mm 5 m/S 772 mmHg 72%
    15:00 +16°C° 0 mm 5 m/S 772 mmHg 72%
    16:00 +15°C° 0 mm 6 m/S 772 mmHg 72%
    17:00 +14°C° 0 mm 6 m/S 772 mmHg 74%
    18:00 +13°C° 0 mm 6 m/S 772 mmHg 76%
    19:00 +13°C° 0 mm 6 m/S 772 mmHg 78%
    20:00 +11°C° 0 mm 6 m/S 772 mmHg 76%
    21:00 +12°C° 0 mm 5 m/S 772 mmHg 75%
    22:00 +10°C° 0 mm 5 m/S 772 mmHg 74%
    23:00 +9°C° 0 mm 5 m/S 772 mmHg 78%

    übermorgen, 28 Mai, Donnerstag

    Zeit Temperatur Niederschläge Wind Luftdruck Luftfeuchtigkeit
    00:00 +8°C° 0 mm 5 m/S 772 mmHg 82%
    01:00 +7°C° 0 mm 5 m/S 772 mmHg 86%
    02:00 +7°C° 0 mm 5 m/S 772 mmHg 88%
    03:00 +6°C° 0 mm 5 m/S 772 mmHg 90%
    04:00 +6°C° 0 mm 5 m/S 772 mmHg 91%
    05:00 +7°C° 0 mm 5 m/S 772 mmHg 87%
    06:00 +9°C° 0 mm 5 m/S 772 mmHg 84%
    07:00 +10°C° 0 mm 6 m/S 772 mmHg 80%
    08:00 +12°C° 0 mm 5 m/S 772 mmHg 77%
    09:00 +13°C° 0 mm 5 m/S 772 mmHg 75%
    10:00 +13°C° 0 mm 5 m/S 772 mmHg 73%
    11:00 +14°C° 0 mm 5 m/S 772 mmHg 71%
    12:00 +14°C° 0 mm 5 m/S 772 mmHg 70%
    13:00 +14°C° 0 mm 5 m/S 772 mmHg 69%
    14:00 +14°C° 0 mm 5 m/S 771 mmHg 68%
    15:00 +14°C° 0 mm 5 m/S 771 mmHg 67%
    16:00 +14°C° 0 mm 5 m/S 771 mmHg 67%
    17:00 +14°C° 0 mm 4 m/S 771 mmHg 71%
    18:00 +13°C° 0 mm 3 m/S 771 mmHg 75%
    19:00 +12°C° 0 mm 3 m/S 770 mmHg 80%
    20:00 +11°C° 0 mm 3 m/S 770 mmHg 83%
    21:00 +10°C° 0 mm 3 m/S 770 mmHg 87%
    22:00 +9°C° 0 mm 3 m/S 771 mmHg 91%
    23:00 +8°C° 0 mm 3 m/S 770 mmHg 91%

    29 Mai, Freitag

    Zeit Temperatur Niederschläge Wind Luftdruck Luftfeuchtigkeit
    00:00 +8°C° 0 mm 3 m/S 770 mmHg 91%
    01:00 +8°C° 0 mm 3 m/S 770 mmHg 92%
    02:00 +8°C° 0 mm 3 m/S 770 mmHg 92%
    03:00 +7°C° 0 mm 3 m/S 770 mmHg 92%
    04:00 +7°C° 0 mm 3 m/S 770 mmHg 93%
    05:00 +9°C° 0 mm 3 m/S 770 mmHg 90%
    06:00 +10°C° 0 mm 3 m/S 770 mmHg 87%
    07:00 +11°C° 0 mm 3 m/S 770 mmHg 84%
    08:00 +12°C° 0 mm 3 m/S 770 mmHg 79%
    09:00 +13°C° 0 mm 3 m/S 770 mmHg 75%
    10:00 +15°C° 0 mm 2 m/S 770 mmHg 70%
    11:00 +15°C° 0 mm 2 m/S 770 mmHg 70%
    12:00 +16°C° 0 mm 2 m/S 770 mmHg 69%
    13:00 +16°C° 0 mm 2 m/S 770 mmHg 68%
    14:00 +16°C° 0 mm 2 m/S 769 mmHg 69%
    15:00 +16°C° 0 mm 2 m/S 769 mmHg 69%
    16:00 +16°C° 0 mm 2 m/S 769 mmHg 69%
    17:00 +16°C° 0 mm 2 m/S 769 mmHg 73%
    18:00 +15°C° 0 mm 2 m/S 769 mmHg 78%
    19:00 +14°C° 0 mm 2 m/S 769 mmHg 82%
    20:00 +13°C° 0 mm 2 m/S 769 mmHg 85%
    21:00 +11°C° 0 mm 1 m/S 769 mmHg 87%
    22:00 +10°C° 0 mm 1 m/S 769 mmHg 90%
    23:00 +9°C° 0 mm 1 m/S 769 mmHg 89%

    30 Mai, Samstag

    Zeit Temperatur Niederschläge Wind Luftdruck Luftfeuchtigkeit
    00:00 +9°C° 0 mm 1 m/S 769 mmHg 89%
    01:00 +8°C° 0 mm 0 m/S 769 mmHg 88%
    02:00 +8°C° 0 mm 0 m/S 769 mmHg 88%
    03:00 +9°C° 0 mm 1 m/S 769 mmHg 87%
    04:00 +9°C° 0 mm 1 m/S 769 mmHg 87%
    05:00 +10°C° 0 mm 1 m/S 769 mmHg 83%
    06:00 +12°C° 0 mm 2 m/S 769 mmHg 80%
    07:00 +14°C° 0 mm 2 m/S 769 mmHg 76%
    08:00 +14°C° 0 mm 3 m/S 768 mmHg 74%
    09:00 +16°C° 0 mm 3 m/S 768 mmHg 71%
    10:00 +17°C° 0 mm 4 m/S 768 mmHg 69%
    11:00 +17°C° 0 mm 4 m/S 768 mmHg 67%
    12:00 +18°C° 0 mm 4 m/S 768 mmHg 65%
    13:00 +18°C° 0 mm 4 m/S 768 mmHg 62%
    14:00 +18°C° 0 mm 4 m/S 768 mmHg 64%
    15:00 +17°C° 0 mm 4 m/S 768 mmHg 65%
    16:00 +17°C° 0 mm 4 m/S 768 mmHg 67%
    17:00 +16°C° 0 mm 3 m/S 767 mmHg 70%
    18:00 +16°C° 0 mm 3 m/S 767 mmHg 74%
    19:00 +15°C° 0 mm 2 m/S 767 mmHg 78%
    20:00 +13°C° 0 mm 2 m/S 767 mmHg 81%
    21:00 +10°C° 0 mm 2 m/S 768 mmHg 84%
    22:00 +9°C° 0 mm 2 m/S 768 mmHg 87%
    23:00 +9°C° 0 mm 1 m/S 768 mmHg 85%

    31 Mai, Sonntag

    Zeit Temperatur Niederschläge Wind Luftdruck Luftfeuchtigkeit
    00:00 +9°C° 0 mm 1 m/S 768 mmHg 83%
    01:00 +8°C° 0 mm 1 m/S 768 mmHg 81%
    02:00 +8°C° 0 mm 1 m/S 767 mmHg 79%
    03:00 +8°C° 0 mm 1 m/S 767 mmHg 76%
    04:00 +8°C° 0 mm 1 m/S 767 mmHg 73%
    05:00 +9°C° 0 mm 2 m/S 767 mmHg 73%
    06:00 +11°C° 0 mm 3 m/S 767 mmHg 74%
    07:00 +13°C° 0 mm 4 m/S 767 mmHg 74%
    08:00 +14°C° 0 mm 4 m/S 767 mmHg 69%
    09:00 +15°C° 0 mm 4 m/S 767 mmHg 64%
    10:00 +16°C° 0 mm 5 m/S 767 mmHg 58%
    11:00 +18°C° 0 mm 4 m/S 766 mmHg 58%
    12:00 +18°C° 0 mm 4 m/S 766 mmHg 57%
    13:00 +18°C° 0 mm 4 m/S 766 mmHg 56%
    14:00 +18°C° 0 mm 4 m/S 766 mmHg 57%
    15:00 +18°C° 0 mm 3 m/S 765 mmHg 57%
    16:00 +18°C° 0 mm 3 m/S 765 mmHg 58%
    17:00 +17°C° 0 mm 3 m/S 765 mmHg 64%
    18:00 +16°C° 0 mm 3 m/S 765 mmHg 70%
    19:00 +14°C° 0 mm 3 m/S 765 mmHg 76%
    20:00 +13°C° 0 mm 3 m/S 765 mmHg 73%
    21:00 +14°C° 0 mm 2 m/S 765 mmHg 71%
    22:00 +13°C° 0 mm 2 m/S 765 mmHg 69%
    23:00 +11°C° 0 mm 3 m/S 765 mmHg 69%
    Mehr zeigen